Wind_Speed
5 5 6 6 6 6 6 5 4 3 4 4 5 6 6 7 8 9 10 11 11 11 10 10 10 10 10 10 10 9 9 9 8 8 8 8 8 8 8 8 7 7 8
5 5 6 6 5 5 4 3 2 2 2 2 3 5 6 7 7 8 9 9 10 10 10 9 9 9 9 9 9 9 9 8 8 8 7 6 5 6 7 7 6 5 6
5 5 6 6 5 5 4 3 2 1 1 1 2 4 5 6 7 8 8 8 9 10 9 9 9 9 9 8 8 9 9 9 8 8 7 7 6 6 7 7 6 6 6
5 6 6 6 6 5 4 3 3 2 1 2 3 4 5 5 7 7 8 8 8 10 10 9 9 9 9 8 8 8 9 9 8 7 7 7 6 6 5 6 7 6 6
6 6 7 7 6 6 5 4 4 4 3 3 3 4 4 4 6 7 8 8 8 8 9 9 9 8 8 8 8 7 7 7 7 7 7 7 6 5 6 6 7 8 8
6 7 7 7 7 6 6 5 5 5 4 4 4 4 5 5 5 7 8 8 8 8 8 8 8 8 7 7 7 6 6 6 6 7 6 7 6 6 6 6 7 7 8
7 7 7 7 7 7 6 6 6 6 5 5 5 6 6 5 6 7 7 8 8 8 8 8 8 7 6 6 6 6 6 6 6 7 6 6 6 6 6 7 7 7 7
7 7 8 8 7 7 7 7 7 6 6 6 6 6 6 5 6 6 6 6 7 7 8 8 8 7 6 5 5 5 5 6 6 6 6 6 6 6 5 6 7 7 8
7 8 8 8 8 7 7 7 7 7 7 6 6 6 5 6 6 6 6 6 6 6 7 7 7 6 6 5 5 5 6 6 6 6 6 6 6 6 6 6 7 7 8
7 8 8 8 8 7 7 7 7 7 7 6 6 6 6 6 6 6 5 5 5 5 5 5 6 6 5 5 5 4 5 6 6 6 6 7 7 6 6 7 7 8 8
6 7 8 8 8 8 7 7 7 7 7 6 6 6 6 6 6 5 5 4 4 4 4 4 5 5 5 5 4 5 5 6 7 7 6 7 7 7 7 7 8 8 8
5 6 7 8 8 8 8 8 8 7 6 6 6 6 5 5 5 5 4 4 4 4 4 4 4 4 5 5 5 5 6 7 7 7 6 7 7 7 8 8 8 8 8
4 6 6 7 8 8 9 8 8 8 7 7 6 6 5 4 4 4 4 3 3 3 3 3 3 3 4 4 5 5 6 6 7 6 6 7 7 8 8 8 8 8 8
4 5 5 6 7 7 8 8 9 8 8 7 7 6 5 5 3 3 3 3 2 2 1 1 1 2 3 4 5 5 5 6 6 6 6 7 7 8 8 9 9 9 10
3 3 4 5 5 7 8 8 8 8 8 7 6 6 6 5 5 4 4 3 3 2 2 1 0 2 2 3 4 5 6 6 6 6 7 7 8 8 8 9 10 10 11
2 2 2 3 4 5 6 6 7 7 7 7 7 6 6 5 5 5 4 4 3 2 2 2 1 1 2 3 4 5 6 6 6 7 7 7 8 8 9 10 11 12 13
3 2 1 1 2 3 4 4 5 5 6 6 5 5 5 5 4 4 4 3 3 2 2 2 2 3 3 4 4 5 6 6 7 8 8 9 10 11 11 11 12 13 14
4 3 2 1 0 1 2 3 3 4 4 4 4 3 3 4 3 3 3 3 3 3 3 3 3 4 5 5 5 6 6 7 8 9 10 10 12 13 13 13 14 15 16
6 5 3 2 2 1 2 2 3 3 3 3 3 2 2 2 3 2 2 3 3 4 5 4 5 6 7 7 8 8 8 9 10 10 11 12 13 14 15 16 17 18 19
7 7 6 5 4 3 3 3 3 3 3 4 3 3 3 3 3 3 4 4 5 5 6 6 7 8 9 10 10 10 11 11 12 12 13 15 16 17 18 20 20 21 21
9 8 8 7 6 5 5 5 5 5 5 5 5 5 5 5 5 5 5 6 6 7 8 9 9 10 11 11 12 12 13 13 14 15 17 18 19 20 21 22 22 23 24
10 10 9 9 8 8 8 7 7 7 6 6 6 6 6 7 7 8 8 8 9 10 10 11 11 12 13 13 14 14 15 15 16 17 18 19 20 21 22 23 24 25 27
12 11 11 11 11 10 10 10 9 9 9 8 8 8 9 9 10 10 10 10 11 12 13 13 14 15 15 16 16 17 17 18 19 19 20 22 23 24 25 26 27 28 29
14 13 12 12 12 12 12 11 11 11 11 11 11 11 11 11 12 12 12 13 14 14 15 16 16 17 17 18 19 19 20 20 21 22 23 25 26 27 28 29 30 31 32
15 15 14 14 13 13 13 13 13 13 13 13 13 13 13 14 14 14 15 15 16 16 17 18 19 19 20 21 21 22 23 24 24 26 27 28 28 29 30 31 32 33 35
16 16 16 16 16 15 15 15 16 15 16 16 16 16 16 17 17 17 17 18 18 19 19 20 21 22 23 23 24 25 26 27 28 29 30 31 32 32 33 34 35 36 37
Wind_Direction
350 345 342 338 332 326 321 312 296 279 267 258 241 223 213 212 212 214 210 209 211 211 210 211 213 215 219 224 226 227 228 232 238 248 251 256 258 251 245 244 242 238 227
1 356 350 348 345 343 341 331 316 290 268 249 223 215 208 208 209 209 203 204 206 205 204 205 207 208 212 217 221 223 224 227 234 240 241 244 248 240 233 234 231 224 215
15 12 5 2 2 6 8 4 353 326 237 193 188 193 196 196 198 196 194 194 197 198 198 199 201 204 209 212 217 219 220 225 232 233 232 235 237 227 220 224 219 217 208
25 20 16 14 15 19 24 30 46 68 105 125 142 165 180 189 192 189 186 184 189 191 195 198 200 205 208 209 210 215 218 223 227 230 232 232 228 223 221 220 217 213 203
33 27 23 20 21 27 37 49 67 82 95 106 122 134 149 167 182 183 181 180 181 184 190 195 199 204 205 205 204 209 214 219 222 224 224 221 223 220 221 220 214 207 201
41 35 29 26 30 36 48 62 72 79 91 101 112 120 132 145 160 168 170 171 175 178 181 186 193 199 202 200 197 197 202 209 211 214 219 219 220 219 221 220 215 215 209
46 39 33 34 41 48 55 63 71 79 87 97 109 115 122 134 142 152 161 167 173 176 182 183 188 192 193 193 191 193 199 208 209 211 221 223 221 224 225 225 222 218 210
48 42 39 41 50 55 62 70 75 81 85 94 107 114 118 127 133 143 152 162 169 175 181 183 187 191 190 189 190 194 199 209 213 212 220 222 224 225 232 233 231 224 224
51 49 49 51 56 61 69 74 77 82 88 92 102 110 114 120 126 137 147 154 162 168 173 183 189 194 198 203 210 214 216 217 222 225 218 214 218 226 234 239 232 233 239
55 55 57 58 61 65 69 73 77 81 88 92 97 107 111 117 122 126 136 146 156 164 172 181 192 199 204 210 217 222 231 231 234 227 220 217 220 226 232 238 238 239 240
61 60 61 62 62 63 66 71 76 81 85 90 95 101 110 116 119 121 127 137 151 163 172 183 200 211 219 222 227 236 243 244 244 238 227 227 235 239 246 250 253 255 247
70 65 63 63 60 60 65 68 72 76 81 86 92 95 103 115 119 118 124 130 142 156 170 188 209 221 234 242 240 248 251 252 248 241 244 244 248 253 258 260 263 263 254
77 69 65 62 59 59 62 65 69 72 75 79 85 92 99 112 121 117 120 122 134 146 167 192 212 224 239 249 252 258 257 257 249 245 246 252 255 256 262 263 265 271 268
91 76 66 60 58 59 61 61 66 71 73 74 74 82 89 96 98 102 105 105 115 120 146 178 215 235 247 257 264 267 267 270 257 255 255 256 262 264 264 263 264 266 267
114 88 72 61 61 64 64 62 62 65 66 69 72 75 79 86 85 86 94 91 90 93 87 81 263 266 267 274 276 276 277 275 278 266 264 262 265 267 268 267 267 267 268
147 113 86 68 68 64 61 58 55 53 56 62 67 69 70 70 77 82 84 76 73 76 58 22 352 314 294 288 295 291 282 282 285 278 267 266 269 270 276 272 272 273 273
182 165 134 89 73 59 52 50 49 48 52 58 61 61 60 60 69 71 67 56 49 34 9 358 343 329 313 307 308 303 292 285 284 288 279 267 269 270 275 277 277 274 275
200 197 201 196 67 30 30 31 30 31 38 45 47 47 47 44 48 46 41 35 28 15 1 351 347 334 321 312 310 302 295 286 286 289 289 280 276 274 276 279 279 278 277
214 217 226 244 266 296 320 337 351 3 6 10 9 6 7 7 10 7 4 1 351 344 341 332 328 324 321 315 313 306 301 295 290 290 292 290 286 281 279 282 282 281 280
225 228 235 248 256 270 288 299 308 320 330 332 327 320 318 321 326 327 324 326 327 327 326 321 321 320 317 315 312 308 304 303 300 297 296 294 291 288 285 285 283 282 283
233 235 238 245 252 263 275 282 287 294 302 308 307 302 298 299 300 302 303 305 308 309 311 311 310 311 311 311 311 307 304 303 300 297 296 295 293 291 288 287 287 286 286
237 240 244 250 256 263 269 274 278 281 286 292 294 294 292 291 291 294 294 296 299 301 302 303 303 303 305 305 306 305 303 302 300 299 299 298 297 294 292 289 288 288 287
242 245 248 253 258 264 268 271 272 273 278 282 284 286 288 289 289 291 291 292 295 298 299 300 301 301 300 302 303 303 303 303 302 302 301 301 301 299 297 294 292 291 290
244 248 251 254 258 262 266 270 271 272 275 278 281 283 286 289 291 291 289 290 293 295 298 299 300 299 298 299 301 302 302 302 302 302 301 302 302 301 299 297 294 293 293
246 250 253 256 259 262 265 268 270 271 274 277 279 282 285 288 290 291 291 292 293 293 295 298 298 298 298 298 299 300 300 300 300 301 301 301 301 300 299 298 296 294 294
250 252 254 256 259 263 266 269 270 272 273 276 278 280 283 285 286 287 289 291 292 293 293 295 296 296 296 296 297 298 299 299 299 299 299 300 300 300 299 298 297 295 294
Height
5880 5878 5877 5876 5874 5873 5871 5870 5869 5869 5868 5868 5867 5867 5868 5868 5869 5870 5871 5872 5874 5875 5876 5877 5878 5879 5881 5882 5882 5883 5883 5884 5884 5884 5884 5882 5880 5880 5881 5881 5881 5880 5879
5879 5878 5876 5875 5873 5872 5870 5869 5869 5868 5867 5867 5867 5867 5867 5867 5868 5869 5870 5871 5873 5874 5875 5876 5877 5878 5879 5880 5881 5882 5882 5883 5883 5883 5883 5881 5880 5879 5880 5881 5881 5880 5880
5879 5877 5876 5874 5873 5871 5870 5869 5868 5867 5867 5866 5866 5866 5866 5867 5867 5868 5869 5871 5872 5873 5874 5876 5877 5878 5878 5879 5880 5881 5881 5882 5882 5882 5881 5881 5880 5880 5880 5881 5881 5881 5880
5879 5877 5876 5874 5873 5871 5870 5869 5868 5867 5867 5866 5866 5866 5866 5866 5867 5868 5869 5870 5871 5872 5874 5875 5876 5877 5878 5879 5879 5880 5880 5881 5881 5880 5880 5880 5880 5880 5880 5881 5881 5881 5881
5879 5877 5876 5874 5873 5871 5870 5869 5868 5867 5867 5866 5866 5866 5866 5866 5867 5868 5869 5870 5871 5872 5873 5874 5875 5876 5877 5878 5879 5879 5880 5880 5880 5879 5880 5880 5880 5880 5880 5881 5881 5881 5881
5879 5878 5876 5875 5873 5872 5871 5869 5868 5868 5867 5867 5867 5867 5867 5867 5867 5868 5869 5870 5871 5872 5873 5874 5875 5876 5876 5877 5878 5879 5879 5880 5880 5880 5880 5880 5880 5880 5880 5881 5881 5881 5881
5880 5879 5877 5875 5874 5873 5871 5870 5869 5869 5868 5868 5868 5868 5868 5868 5868 5868 5869 5870 5871 5873 5873 5874 5875 5876 5876 5877 5878 5878 5879 5880 5880 5880 5880 5880 5880 5880 5880 5880 5881 5881 5882
5881 5880 5878 5877 5875 5874 5872 5871 5871 5870 5869 5869 5869 5869 5869 5870 5869 5869 5870 5871 5872 5872 5873 5874 5875 5876 5876 5877 5878 5878 5879 5880 5880 5880 5880 5880 5880 5880 5880 5880 5879 5880 5881
5882 5881 5879 5878 5876 5875 5874 5873 5872 5871 5871 5870 5870 5871 5870 5870 5870 5871 5871 5871 5872 5873 5874 5874 5875 5876 5876 5877 5878 5878 5879 5879 5879 5879 5879 5879 5879 5879 5880 5879 5879 5879 5880
5884 5882 5881 5879 5878 5877 5876 5875 5874 5873 5873 5872 5872 5872 5872 5872 5872 5872 5872 5872 5873 5873 5874 5875 5875 5876 5876 5877 5877 5878 5878 5878 5878 5878 5878 5878 5878 5878 5878 5878 5878 5878 5878
5885 5884 5882 5881 5880 5878 5877 5876 5876 5875 5874 5874 5873 5873 5873 5873 5873 5873 5873 5874 5874 5874 5874 5875 5875 5876 5876 5876 5877 5877 5877 5877 5877 5877 5877 5877 5877 5877 5877 5877 5877 5877 5877
5886 5885 5884 5883 5882 5880 5879 5878 5877 5876 5876 5875 5875 5874 5874 5874 5875 5875 5874 5874 5875 5875 5875 5875 5875 5875 5875 5875 5876 5876 5876 5876 5876 5876 5876 5876 5876 5876 5876 5875 5875 5875 5875
5887 5886 5886 5884 5883 5882 5881 5880 5879 5878 5878 5877 5876 5876 5875 5875 5876 5876 5875 5875 5875 5875 5875 5875 5875 5875 5875 5875 5875 5875 5875 5874 5874 5875 5875 5875 5875 5875 5874 5874 5874 5873 5873
5888 5887 5887 5886 5885 5884 5883 5882 5881 5880 5879 5879 5878 5877 5877 5876 5876 5876 5876 5876 5876 5876 5875 5875 5875 5874 5874 5874 5874 5873 5873 5873 5873 5873 5873 5873 5873 5873 5873 5873 5872 5872 5872
5888 5888 5887 5887 5886 5886 5885 5884 5883 5882 5881 5880 5879 5879 5878 5878 5877 5877 5877 5877 5877 5876 5876 5875 5875 5874 5874 5873 5873 5872 5872 5872 5871 5872 5871 5871 5871 5871 5871 5870 5870 5870 5870
5888 5888 5888 5888 5887 5887 5886 5885 5884 5883 5882 5881 5881 5880 5879 5879 5878 5878 5878 5877 5877 5877 5876 5875 5874 5874 5873 5872 5871 5870 5870 5870 5870 5870 5869 5869 5869 5869 5868 5868 5868 5868 5868
5888 5888 5888 5888 5888 5887 5887 5886 5885 5884 5883 5882 5882 5881 5880 5880 5879 5879 5878 5878 5877 5877 5876 5875 5874 5873 5872 5871 5870 5869 5868 5868 5868 5868 5867 5867 5867 5866 5866 5865 5865 5865 5865
5888 5888 5888 5888 5888 5888 5887 5886 5886 5885 5884 5883 5882 5881 5881 5880 5879 5879 5879 5878 5877 5877 5876 5875 5874 5873 5872 5870 5869 5868 5867 5867 5867 5866 5865 5865 5864 5864 5863 5862 5862 5861 5861
5887 5887 5888 5888 5888 5887 5887 5886 5885 5885 5884 5883 5882 5881 5881 5880 5879 5879 5878 5878 5877 5876 5875 5874 5873 5872 5871 5869 5868 5867 5866 5865 5864 5864 5863 5862 5861 5860 5859 5859 5858 5858 5857
5886 5886 5887 5887 5887 5886 5886 5886 5885 5884 5883 5882 5881 5880 5880 5879 5879 5878 5878 5877 5876 5876 5875 5874 5872 5871 5870 5868 5866 5865 5864 5863 5862 5861 5860 5859 5857 5856 5855 5854 5854 5853 5852
5884 5885 5885 5885 5885 5885 5885 5884 5884 5883 5882 5881 5880 5879 5878 5878 5877 5877 5877 5876 5875 5874 5873 5872 5871 5870 5868 5866 5865 5863 5862 5861 5859 5857 5856 5855 5853 5852 5850 5849 5848 5847 5846
5882 5883 5883 5884 5884 5884 5883 5883 5882 5881 5880 5879 5878 5877 5877 5876 5876 5875 5875 5874 5874 5873 5871 5870 5869 5867 5866 5864 5862 5860 5859 5857 5856 5854 5852 5850 5848 5845 5843 5842 5841 5840 5839
5880 5880 5881 5881 5881 5881 5881 5881 5880 5879 5878 5878 5877 5876 5875 5875 5874 5874 5873 5872 5871 5870 5869 5868 5866 5864 5863 5861 5859 5857 5855 5853 5851 5849 5847 5844 5842 5839 5836 5834 5833 5832 5830
5877 5877 5878 5878 5878 5878 5878 5878 5877 5877 5876 5875 5875 5874 5873 5872 5872 5871 5870 5869 5868 5867 5866 5864 5862 5861 5859 5857 5855 5853 5851 5848 5846 5844 5841 5839 5835 5832 5829 5827 5824 5823 5821
5873 5874 5874 5875 5875 5875 5875 5874 5874 5873 5873 5872 5872 5871 5870 5869 5868 5867 5867 5866 5865 5863 5862 5860 5858 5856 5854 5852 5850 5848 5846 5843 5841 5838 5835 5832 5829 5825 5822 5819 5816 5814 5811
5869 5870 5870 5871 5871 5871 5871 5871 5870 5870 5869 5869 5868 5867 5866 5865 5864 5863 5862 5861 5860 5859 5857 5855 5853 5851 5849 5847 5845 5843 5840 5837 5834 5832 5828 5825 5821 5818 5815 5812 5808 5805 5802